Weather History for Mineral Point, WI

Change the Weather History Date:

Sunday, October 28, 2012

  Actual Average (KLNR) Record (KLNR)
Temperature  
Mean Temperature 38 °F -  
Max Temperature 46 °F 52 °F 68 °F (1998)
Min Temperature 30 °F 35 °F 21 °F (2005)
Degree Days  
Heating Degree Days 27    
Moisture  
Dew Point 21 °F    
Average Humidity 51    
Maximum Humidity 69    
Minimum Humidity 34    
Precipitation  
Precipitation 0.00 in - - ()
Sea Level Pressure  
Sea Level Pressure 30.31 in    
Wind  
Wind Speed 4 mph (NE)    
Max Wind Speed 12 mph    
Max Gust Speed 16 mph    
Visibility 10 miles    
Events      
Averages and records for this station are not official NWS values.
T = Trace of Precipitation, MM = Missing Value Source: NWS Daily Summary

Daily Weather History Graph

Daily Weather History Graph

Search for Another Location

Airport:

Trip Planner

Search our weather history database for the weather conditions in past years. The results will help you decide how hot, cold, wet, or windy it might be!

Date:

Astronomy

Oct. 28, 2012 Rise Set
Actual Time 7:30 AM CDT 5:57 PM CDT
Civil Twilight 7:01 AM CDT 6:27 PM CDT
Nautical Twilight 6:28 AM CDT 7:00 PM CDT
Astronomical Twilight 5:55 AM CDT 7:33 PM CDT
Moon 5:15 PM CDT (10/28) 6:23 AM CDT (10/28)
Length of Visible Light 11h 25m
Length of Day
10h 27m
Waxing Gibbous, 99% of the Moon is Illuminated
Oct 28
Waxing Gibbous
Oct 29
Full
Nov 6
Last Quarter
Nov 13
New
Nov 20
First Quarter

Hourly Weather History & Observations

Time (CDT) Temp. Windchill Dew Point Humidity Pressure Visibility Wind Dir Wind Speed Gust Speed Precip Events Conditions
12:15 AM 32.0 °F - 21.2 °F 64% 30.31 in 10.0 mi Calm Calm - N/A   Clear
12:35 AM 32.0 °F 28.7 °F 21.2 °F 64% 30.31 in 10.0 mi North 3.5 mph - N/A   Clear
12:55 AM 32.0 °F 27.5 °F 19.4 °F 60% 30.31 in 10.0 mi North 4.6 mph - N/A   Clear
1:15 AM 32.0 °F 27.5 °F 21.2 °F 64% 30.31 in 10.0 mi North 4.6 mph - N/A   Clear
1:35 AM 32.0 °F 27.5 °F 21.2 °F 64% 30.31 in 10.0 mi North 4.6 mph - N/A   Clear
1:55 AM 32.0 °F 27.5 °F 19.4 °F 60% 30.31 in 10.0 mi North 4.6 mph - N/A   Clear
2:15 AM 32.0 °F 27.5 °F 19.4 °F 60% 30.32 in 10.0 mi North 4.6 mph - N/A   Clear
2:35 AM 32.0 °F 27.5 °F 19.4 °F 60% 30.32 in 10.0 mi North 4.6 mph - N/A   Clear
2:55 AM 32.0 °F 28.7 °F 19.4 °F 60% 30.32 in 10.0 mi NNE 3.5 mph - N/A   Clear
3:15 AM 32.0 °F 27.5 °F 19.4 °F 60% 30.31 in 10.0 mi NNE 4.6 mph - N/A   Clear
3:35 AM 32.0 °F 27.5 °F 19.4 °F 60% 30.31 in 10.0 mi NNE 4.6 mph - N/A   Clear
3:55 AM 30.2 °F 25.4 °F 21.2 °F 69% 30.31 in 10.0 mi North 4.6 mph - N/A   Clear
4:15 AM 32.0 °F 26.4 °F 19.4 °F 60% 30.31 in 10.0 mi North 5.8 mph - N/A   Clear
4:35 AM 32.0 °F 27.5 °F 19.4 °F 60% 30.31 in 10.0 mi NNE 4.6 mph - N/A   Clear
4:55 AM 32.0 °F 27.5 °F 19.4 °F 60% 30.31 in 10.0 mi NNE 4.6 mph - N/A   Clear
5:15 AM 32.0 °F 28.7 °F 19.4 °F 60% 30.32 in 10.0 mi NE 3.5 mph - N/A   Clear
5:35 AM 32.0 °F 27.5 °F 19.4 °F 60% 30.32 in 10.0 mi NE 4.6 mph - N/A   Clear
5:55 AM 32.0 °F - 19.4 °F 60% 30.32 in 10.0 mi Calm Calm - N/A   Clear
6:15 AM 32.0 °F 28.7 °F 19.4 °F 60% 30.32 in 10.0 mi NNE 3.5 mph - N/A   Clear
6:35 AM 32.0 °F 28.7 °F 19.4 °F 60% 30.32 in 10.0 mi NNE 3.5 mph - N/A   Clear
6:55 AM 32.0 °F - 19.4 °F 60% 30.32 in 10.0 mi Calm Calm - N/A   Clear
7:15 AM 30.2 °F 26.7 °F 19.4 °F 64% 30.33 in 10.0 mi NNE 3.5 mph - N/A   Clear
7:35 AM 32.0 °F 28.7 °F 21.2 °F 64% 30.33 in 10.0 mi NNE 3.5 mph - N/A   Clear
7:55 AM 32.0 °F 27.5 °F 21.2 °F 64% 30.33 in 10.0 mi NNE 4.6 mph - N/A   Clear
8:15 AM 32.0 °F 28.7 °F 21.2 °F 64% 30.34 in 10.0 mi North 3.5 mph - N/A   Clear
8:35 AM 32.0 °F 28.7 °F 23.0 °F 69% 30.34 in 10.0 mi NNE 3.5 mph - N/A   Clear
8:55 AM 33.8 °F - 23.0 °F 65% 30.34 in 10.0 mi Calm Calm - N/A   Clear
9:15 AM 35.6 °F 31.7 °F 23.0 °F 60% 30.34 in 10.0 mi NNE 4.6 mph - N/A   Clear
10:15 AM 41.0 °F 34.3 °F 19.4 °F 42% 30.34 in 3.0 mi NE 11.5 mph - N/A   Haze
10:35 AM 42.8 °F 36.6 °F 19.4 °F 39% 30.34 in 7.0 mi ENE 11.5 mph 16.1 mph N/A   Scattered Clouds
10:55 AM 42.8 °F 36.6 °F 19.4 °F 39% 30.34 in 1.5 mi NE 11.5 mph - N/A   Haze
11:15 AM 42.8 °F 37.0 °F 19.4 °F 39% 30.34 in 3.0 mi ENE 10.4 mph - N/A   Haze
11:35 AM 44.6 °F 40.2 °F 21.2 °F 39% 30.34 in 10.0 mi ENE 8.1 mph - N/A   Clear
12:15 PM 44.6 °F 40.7 °F 21.2 °F 39% 30.33 in 10.0 mi ENE 6.9 mph - N/A   Clear
12:35 PM 44.6 °F 42.2 °F 21.2 °F 39% 30.32 in 10.0 mi ENE 4.6 mph - N/A   Clear
12:55 PM 44.6 °F 43.1 °F 21.2 °F 39% 30.31 in 10.0 mi ENE 3.5 mph - N/A   Clear
1:15 PM 44.6 °F 43.1 °F 21.2 °F 39% 30.31 in 10.0 mi ENE 3.5 mph - N/A   Clear
1:35 PM 46.4 °F 43.5 °F 21.2 °F 37% 30.30 in 10.0 mi East 5.8 mph - N/A   Clear
1:55 PM 46.4 °F 44.3 °F 23.0 °F 40% 30.30 in 10.0 mi East 4.6 mph - N/A   Clear
2:15 PM 46.4 °F - 21.2 °F 37% 30.29 in 10.0 mi Calm Calm - N/A   Clear
2:35 PM 46.4 °F - 21.2 °F 37% 30.29 in 10.0 mi Calm Calm - N/A   Clear
2:55 PM 46.4 °F 45.2 °F 21.2 °F 37% 30.29 in 10.0 mi ENE 3.5 mph - N/A   Clear
3:15 PM 46.4 °F 44.3 °F 19.4 °F 34% 30.29 in 10.0 mi NNE 4.6 mph - N/A   Clear
3:35 PM 46.4 °F 44.3 °F 21.2 °F 37% 30.29 in 10.0 mi North 4.6 mph - N/A   Clear
3:55 PM 46.4 °F - 19.4 °F 34% 30.29 in 10.0 mi Calm Calm - N/A   Clear
4:15 PM 46.4 °F - 21.2 °F 37% 30.29 in 10.0 mi Calm Calm - N/A   Clear
4:55 PM 46.4 °F 44.3 °F 19.4 °F 34% 30.28 in 10.0 mi NNE 4.6 mph - N/A   Clear
5:15 PM 46.4 °F 45.2 °F 21.2 °F 37% 30.28 in 10.0 mi NE 3.5 mph - N/A   Clear
5:35 PM 44.6 °F 42.2 °F 21.2 °F 39% 30.28 in 10.0 mi NNE 4.6 mph - N/A   Clear
5:55 PM 42.8 °F 40.1 °F 21.2 °F 42% 30.28 in 10.0 mi NNE 4.6 mph - N/A   Clear
6:15 PM 42.8 °F 39.3 °F 19.4 °F 39% 30.29 in 10.0 mi NNE 5.8 mph - N/A   Clear
6:35 PM 42.8 °F 39.3 °F 21.2 °F 42% 30.29 in 10.0 mi NE 5.8 mph - N/A   Clear
6:55 PM 41.0 °F 39.0 °F 21.2 °F 45% 30.29 in 10.0 mi NE 3.5 mph - N/A   Clear
7:15 PM 41.0 °F 39.0 °F 21.2 °F 45% 30.29 in 10.0 mi NE 3.5 mph - N/A   Clear
7:35 PM 41.0 °F 38.0 °F 21.2 °F 45% 30.29 in 10.0 mi NE 4.6 mph - N/A   Clear
7:55 PM 41.0 °F 39.0 °F 21.2 °F 45% 30.29 in 10.0 mi NE 3.5 mph - N/A   Clear
8:15 PM 41.0 °F 39.0 °F 21.2 °F 45% 30.29 in 10.0 mi NE 3.5 mph - N/A   Clear
8:35 PM 41.0 °F 39.0 °F 21.2 °F 45% 30.30 in 10.0 mi NE 3.5 mph - N/A   Clear
8:55 PM 39.2 °F 37.0 °F 21.2 °F 49% 30.30 in 10.0 mi NE 3.5 mph - N/A   Clear
9:15 PM 39.2 °F 35.9 °F 23.0 °F 52% 30.30 in 10.0 mi NE 4.6 mph - N/A   Clear
9:35 PM 37.4 °F 33.8 °F 23.0 °F 56% 30.30 in 10.0 mi ENE 4.6 mph - N/A   Clear
9:55 PM 37.4 °F 33.8 °F 23.0 °F 56% 30.30 in 10.0 mi ENE 4.6 mph - N/A   Clear
10:15 PM 37.4 °F 34.9 °F 23.0 °F 56% 30.31 in 10.0 mi ENE 3.5 mph - N/A   Clear
10:35 PM 37.4 °F 33.8 °F 23.0 °F 56% 30.31 in 10.0 mi ENE 4.6 mph - N/A   Clear
10:55 PM 35.6 °F 32.8 °F 23.0 °F 60% 30.31 in 10.0 mi ENE 3.5 mph - N/A   Clear
11:15 PM 35.6 °F 32.8 °F 23.0 °F 60% 30.31 in 10.0 mi East 3.5 mph - N/A   Clear
11:35 PM 35.6 °F 32.8 °F 23.0 °F 60% 30.31 in 10.0 mi ENE 3.5 mph - N/A   Clear
11:55 PM 35.6 °F 32.8 °F 23.0 °F 60% 30.31 in 10.0 mi ENE 3.5 mph - N/A   Clear